Voltar ao catálogo

STARLINK-3218

AtivoComunicaçõesVLEO
NORAD 49725·PAYLOAD·🇺🇸 United States

Lançado Dec 2, 2021 de Cape Canaveral Space Force Station

Loading…

Próximas Passagens (próximas 24 horas)

TLE

AtualizadoSource: CelesTrak SupGP

Época: Sep 14, 2026, 21:29 UTC

1 49725C 21115B   26257.89562500 -.00037511  00000+0 -11084-2 0  2575
2 49725  53.1593   8.0593 0001149  83.1715  98.0841 15.34407071    13

Acompanhe STARLINK-3218 em tempo real com AllMySat

Download on the App Store